Time,TemperatureF,DewpointF,PressureIn,WindDirection,WindDirectionDegrees,WindSpeedMPH,WindSpeedGustMPH,Humidity,HourlyPrecipIn,Conditions,Clouds,dailyrainin,SoftwareType,DateUTC
2013-04-16 00:26:00,45.6,44.0,29.91,North,350,0.0,0.0,94,0.00,,---,0.34,VWS V14.01,2013-04-16 04:26:00,
2013-04-16 00:27:00,45.6,44.0,29.91,North,350,0.0,0.0,94,0.24,,---,0.00,VWS V14.01,2013-04-16 04:27:00,
2013-04-16 00:28:00,45.6,44.0,29.91,North,350,0.0,0.0,94,0.00,,---,0.00,VWS V14.01,2013-04-16 04:28:00,
2013-04-16 00:31:00,45.8,44.2,29.91,WNW,282,3.6,3.6,94,0.00,,---,0.00,VWS V14.01,2013-04-16 04:31:00,
2013-04-16 00:37:00,45.6,44.0,29.94,North,350,3.6,3.6,94,0.00,,---,0.00,VWS V14.01,2013-04-16 04:37:00,
2013-04-16 00:42:00,45.6,44.0,29.94,North,350,3.6,3.6,94,0.04,,---,0.04,VWS V14.01,2013-04-16 04:42:00,
2013-04-16 00:47:00,45.6,44.3,29.91,North,350,3.6,3.6,95,0.09,,---,0.09,VWS V14.01,2013-04-16 04:47:00,
2013-04-16 00:52:00,45.4,44.1,29.91,North,350,3.6,3.6,95,0.09,,---,0.09,VWS V14.01,2013-04-16 04:52:00,
2013-04-16 00:57:00,45.4,44.1,29.91,North,350,3.6,3.6,95,0.09,,---,0.09,VWS V14.01,2013-04-16 04:57:00,
2013-04-16 01:02:00,45.4,44.1,29.91,North,350,3.6,3.6,95,0.09,,---,0.34,VWS V14.01,2013-04-16 05:02:00,
2013-04-16 01:07:00,45.6,44.3,29.94,NE,35,0.0,0.0,95,0.13,,---,0.13,VWS V14.01,2013-04-16 05:07:00,
2013-04-16 01:12:00,45.4,44.1,29.94,NE,35,0.0,0.0,95,0.13,,---,0.13,VWS V14.01,2013-04-16 05:12:00,
2013-04-16 01:17:00,45.4,44.1,29.94,NE,35,0.0,0.0,95,0.13,,---,0.13,VWS V14.01,2013-04-16 05:17:00,
2013-04-16 01:23:00,45.3,44.2,29.94,NE,35,0.0,0.0,96,0.17,,---,0.17,VWS V14.01,2013-04-16 05:23:00,
2013-04-16 01:28:00,45.3,44.2,29.94,North,350,7.0,7.0,96,0.17,,---,0.17,VWS V14.01,2013-04-16 05:28:00,
2013-04-16 01:33:00,45.3,44.2,29.94,North,350,7.0,7.0,96,0.17,,---,0.17,VWS V14.01,2013-04-16 05:33:00,
2013-04-16 01:38:00,45.3,44.2,29.94,North,350,7.0,7.0,96,0.13,,---,0.17,VWS V14.01,2013-04-16 05:38:00,
2013-04-16 01:43:00,45.3,44.2,29.94,North,350,7.0,7.0,96,0.13,,---,0.17,VWS V14.01,2013-04-16 05:43:00,
2013-04-16 01:48:00,45.3,44.2,29.94,North,350,7.0,7.0,96,0.12,,---,0.21,VWS V14.01,2013-04-16 05:48:00,
2013-04-16 01:53:00,45.3,44.2,29.94,North,350,7.0,7.0,96,0.12,,---,0.21,VWS V14.01,2013-04-16 05:53:00,
2013-04-16 01:58:00,45.3,44.2,29.94,North,350,7.0,7.0,96,0.12,,---,0.21,VWS V14.01,2013-04-16 05:58:00,
2013-04-16 02:03:00,45.3,44.2,29.94,North,350,7.0,7.0,96,0.12,,---,0.21,VWS V14.01,2013-04-16 06:03:00,
2013-04-16 02:08:00,45.3,44.2,29.94,North,350,7.0,7.0,96,0.08,,---,0.21,VWS V14.01,2013-04-16 06:08:00,
2013-04-16 02:13:00,45.3,44.2,29.94,North,350,7.0,7.0,96,0.08,,---,0.21,VWS V14.01,2013-04-16 06:13:00,
2013-04-16 02:19:00,45.3,44.2,29.94,North,350,7.0,7.0,96,0.08,,---,0.21,VWS V14.01,2013-04-16 06:19:00,
2013-04-16 02:24:00,45.3,44.2,29.94,North,350,7.0,7.0,96,0.04,,---,0.21,VWS V14.01,2013-04-16 06:24:00,
2013-04-16 02:29:00,45.3,44.2,29.94,North,350,7.0,7.0,96,0.04,,---,0.21,VWS V14.01,2013-04-16 06:29:00,
2013-04-16 02:34:00,45.3,44.2,29.94,North,350,7.0,7.0,96,0.04,,---,0.21,VWS V14.01,2013-04-16 06:34:00,
2013-04-16 02:39:00,45.1,44.0,29.94,North,350,7.0,7.0,96,0.04,,---,0.21,VWS V14.01,2013-04-16 06:39:00,
2013-04-16 02:44:00,45.1,44.0,29.94,WNW,282,5.6,5.6,96,0.08,,---,0.25,VWS V14.01,2013-04-16 06:44:00,
2013-04-16 02:49:00,45.1,44.0,29.94,NW,305,4.0,4.0,96,0.04,,---,0.25,VWS V14.01,2013-04-16 06:49:00,
2013-04-16 02:54:00,45.1,44.3,29.94,SW,215,1.7,1.7,97,0.04,,---,0.25,VWS V14.01,2013-04-16 06:54:00,
2013-04-16 02:59:00,45.1,44.3,29.94,SW,215,1.7,1.7,97,0.04,,---,0.34,VWS V14.01,2013-04-16 06:59:00,
2013-04-16 03:05:00,45.1,44.3,29.94,SW,215,1.7,1.7,97,0.04,,---,0.25,VWS V14.01,2013-04-16 07:05:00,
2013-04-16 03:10:00,45.1,44.3,29.94,SW,215,1.7,1.7,97,0.04,,---,0.25,VWS V14.01,2013-04-16 07:10:00,
2013-04-16 03:15:00,44.9,44.1,29.94,SW,215,1.7,1.7,97,0.04,,---,0.25,VWS V14.01,2013-04-16 07:15:00,
2013-04-16 03:20:00,44.9,44.1,29.94,SW,215,1.7,1.7,97,0.04,,---,0.25,VWS V14.01,2013-04-16 07:20:00,
2013-04-16 03:25:00,44.9,44.1,29.94,SW,215,1.7,1.7,97,0.04,,---,0.25,VWS V14.01,2013-04-16 07:25:00,
2013-04-16 03:30:00,44.9,44.1,29.94,SW,215,1.7,1.7,97,0.04,,---,0.25,VWS V14.01,2013-04-16 07:30:00,
2013-04-16 03:35:00,44.9,44.1,29.94,SW,215,1.7,1.7,97,0.04,,---,0.25,VWS V14.01,2013-04-16 07:35:00,
2013-04-16 03:40:00,44.9,44.1,29.94,SW,215,1.7,1.7,97,0.00,,---,0.25,VWS V14.01,2013-04-16 07:40:00,
2013-04-16 03:45:00,44.9,44.1,29.94,SW,215,1.7,1.7,97,0.00,,---,0.25,VWS V14.01,2013-04-16 07:45:00,
2013-04-16 03:50:00,44.9,44.1,29.94,SW,215,1.7,1.7,97,0.00,,---,0.25,VWS V14.01,2013-04-16 07:50:00,
2013-04-16 03:56:00,44.9,44.1,29.94,SW,215,1.7,1.7,97,0.00,,---,0.25,VWS V14.01,2013-04-16 07:56:00,
2013-04-16 04:01:00,44.9,44.1,29.94,SW,215,1.7,1.7,97,0.00,,---,0.25,VWS V14.01,2013-04-16 08:01:00,
2013-04-16 04:06:00,44.9,44.1,29.94,SW,215,1.7,1.7,97,0.00,,---,0.25,VWS V14.01,2013-04-16 08:06:00,
2013-04-16 04:11:00,44.9,44.1,29.94,SW,215,1.7,1.7,97,0.00,,---,0.25,VWS V14.01,2013-04-16 08:11:00,
2013-04-16 04:16:00,44.9,44.1,29.94,SW,215,1.7,1.7,97,0.00,,---,0.25,VWS V14.01,2013-04-16 08:16:00,
2013-04-16 04:21:00,44.9,44.1,29.91,SW,215,1.7,1.7,97,0.00,,---,0.25,VWS V14.01,2013-04-16 08:21:00,
2013-04-16 04:26:00,44.9,44.1,29.91,SW,215,1.7,1.7,97,0.00,,---,0.25,VWS V14.01,2013-04-16 08:26:00,
2013-04-16 04:31:00,44.9,44.1,29.91,SW,215,1.7,1.7,97,0.00,,---,0.25,VWS V14.01,2013-04-16 08:31:00,
2013-04-16 04:36:00,44.9,44.1,29.94,SW,215,1.7,1.7,97,0.00,,---,0.25,VWS V14.01,2013-04-16 08:36:00,
2013-04-16 04:41:00,44.9,44.1,29.94,SW,215,1.7,1.7,97,0.00,,---,0.25,VWS V14.01,2013-04-16 08:41:00,
2013-04-16 04:46:00,44.9,44.1,29.94,SW,215,1.7,1.7,97,0.00,,---,0.25,VWS V14.01,2013-04-16 08:46:00,
2013-04-16 04:51:00,44.9,44.1,29.97,SW,215,1.7,1.7,97,0.00,,---,0.25,VWS V14.01,2013-04-16 08:51:00,
2013-04-16 04:56:00,44.9,44.1,29.97,SW,215,1.7,1.7,97,0.00,,---,0.25,VWS V14.01,2013-04-16 08:56:00,
2013-04-16 05:02:00,44.9,44.1,29.97,SW,215,1.7,1.7,97,0.00,,---,0.25,VWS V14.01,2013-04-16 09:02:00,
2013-04-16 05:07:00,44.9,44.1,29.97,SW,215,1.7,1.7,97,0.00,,---,0.25,VWS V14.01,2013-04-16 09:07:00,
2013-04-16 05:12:00,44.9,44.1,29.97,SW,215,1.7,1.7,97,0.00,,---,0.25,VWS V14.01,2013-04-16 09:12:00,
2013-04-16 05:17:00,44.7,43.9,29.94,SW,215,1.7,1.7,97,0.00,,---,0.25,VWS V14.01,2013-04-16 09:17:00,
2013-04-16 05:22:00,44.7,43.9,29.94,SW,215,1.7,1.7,97,0.00,,---,0.25,VWS V14.01,2013-04-16 09:22:00,
2013-04-16 05:27:00,44.5,43.7,29.94,SW,215,1.7,1.7,97,0.00,,---,0.25,VWS V14.01,2013-04-16 09:27:00,
2013-04-16 05:32:00,44.5,43.7,29.94,SW,215,1.7,1.7,97,0.00,,---,0.25,VWS V14.01,2013-04-16 09:32:00,
2013-04-16 05:37:00,44.5,43.7,29.94,SW,215,1.7,1.7,97,0.00,,---,0.25,VWS V14.01,2013-04-16 09:37:00,
2013-04-16 05:42:00,44.5,43.7,29.94,SW,215,1.7,1.7,97,0.00,,---,0.25,VWS V14.01,2013-04-16 09:42:00,
2013-04-16 05:48:00,44.5,43.7,29.97,SW,215,1.7,1.7,97,0.00,,---,0.25,VWS V14.01,2013-04-16 09:48:00,
2013-04-16 05:53:00,44.2,43.4,29.97,SW,215,1.7,1.7,97,0.00,,---,0.25,VWS V14.01,2013-04-16 09:53:00,
2013-04-16 05:58:00,44.0,43.2,29.97,SW,215,1.7,1.7,97,0.00,,---,0.25,VWS V14.01,2013-04-16 09:58:00,
2013-04-16 06:03:00,43.6,42.8,29.97,SW,215,1.7,1.7,97,0.00,,---,0.25,VWS V14.01,2013-04-16 10:03:00,
2013-04-16 06:08:00,43.5,42.7,29.97,SW,215,1.7,1.7,97,0.00,,---,0.25,VWS V14.01,2013-04-16 10:08:00,
2013-04-16 06:13:00,43.1,42.3,29.97,SW,215,1.7,1.7,97,0.00,,---,0.25,VWS V14.01,2013-04-16 10:13:00,
2013-04-16 06:18:00,42.6,41.8,29.97,SW,215,1.7,1.7,97,0.00,,---,0.25,VWS V14.01,2013-04-16 10:18:00,
2013-04-16 06:23:00,42.2,41.4,29.97,SW,215,1.7,1.7,97,0.00,,---,0.25,VWS V14.01,2013-04-16 10:23:00,
2013-04-16 06:28:00,42.0,41.2,29.97,SW,215,1.7,1.7,97,0.00,,---,0.25,VWS V14.01,2013-04-16 10:28:00,
2013-04-16 06:33:00,41.7,40.9,29.97,SW,215,1.7,1.7,97,0.00,,---,0.25,VWS V14.01,2013-04-16 10:33:00,
2013-04-16 06:38:00,41.5,40.7,29.97,SW,215,1.7,1.7,97,0.00,,---,0.25,VWS V14.01,2013-04-16 10:38:00,
2013-04-16 06:43:00,41.5,40.7,29.97,SW,215,1.7,1.7,97,0.00,,---,0.25,VWS V14.01,2013-04-16 10:43:00,
2013-04-16 06:49:00,41.5,40.7,29.97,SW,215,1.7,1.7,97,0.00,,---,0.25,VWS V14.01,2013-04-16 10:49:00,
2013-04-16 06:54:00,41.3,40.5,29.97,SW,215,1.7,1.7,97,0.00,,---,0.25,VWS V14.01,2013-04-16 10:54:00,
2013-04-16 06:59:00,41.3,40.5,29.97,SW,215,1.7,1.7,97,0.00,,---,0.25,VWS V14.01,2013-04-16 10:59:00,
2013-04-16 07:04:00,41.3,40.5,29.97,SW,215,1.7,1.7,97,0.00,,---,0.34,VWS V14.01,2013-04-16 11:04:00,
2013-04-16 07:09:00,41.1,40.3,30.00,SW,215,1.7,1.7,97,0.00,,---,0.25,VWS V14.01,2013-04-16 11:09:00,
2013-04-16 07:15:00,41.1,40.3,30.00,SW,215,1.7,1.7,97,0.00,,---,0.25,VWS V14.01,2013-04-16 11:15:00,
2013-04-16 07:20:00,41.1,40.3,30.00,SW,215,1.7,1.7,97,0.00,,---,0.25,VWS V14.01,2013-04-16 11:20:00,
2013-04-16 07:25:00,41.1,40.3,30.00,SW,215,1.7,1.7,97,0.00,,---,0.25,VWS V14.01,2013-04-16 11:25:00,
2013-04-16 07:30:00,41.1,40.3,30.00,NW,305,3.0,3.0,97,0.00,,---,0.25,VWS V14.01,2013-04-16 11:30:00,
2013-04-16 07:35:00,41.1,40.3,30.00,NNW,328,3.6,3.6,97,0.00,,---,0.25,VWS V14.01,2013-04-16 11:35:00,
2013-04-16 07:40:00,41.1,40.3,30.00,WNW,282,3.6,3.6,97,0.00,,---,0.25,VWS V14.01,2013-04-16 11:40:00,
2013-04-16 07:45:00,41.1,40.3,30.00,North,350,2.3,3.0,97,0.00,,---,0.25,VWS V14.01,2013-04-16 11:45:00,
2013-04-16 07:50:00,41.1,40.3,30.03,West,260,3.3,3.3,97,0.00,,---,0.25,VWS V14.01,2013-04-16 11:50:00,
2013-04-16 07:55:00,41.1,40.3,30.03,West,260,0.0,5.6,97,0.00,,---,0.25,VWS V14.01,2013-04-16 11:55:00,
2013-04-16 08:00:00,41.1,40.3,30.03,NW,305,5.0,5.0,97,0.00,,---,0.34,VWS V14.01,2013-04-16 12:00:00,
2013-04-16 08:05:00,41.1,40.3,30.03,NW,305,2.3,5.3,97,0.00,,---,0.25,VWS V14.01,2013-04-16 12:05:00,
2013-04-16 08:10:00,41.1,40.3,30.03,NW,305,2.3,2.3,97,0.00,,---,0.25,VWS V14.01,2013-04-16 12:10:00,
2013-04-16 08:15:00,41.1,40.3,30.03,North,350,0.0,4.3,97,0.00,,---,0.25,VWS V14.01,2013-04-16 12:15:00,
2013-04-16 08:22:00,41.1,40.3,30.03,NW,305,0.0,0.0,97,0.00,,---,0.25,VWS V14.01,2013-04-16 12:22:00,
2013-04-16 08:27:00,41.1,40.3,30.03,West,260,4.3,5.6,97,0.00,,---,0.25,VWS V14.01,2013-04-16 12:27:00,
2013-04-16 08:32:00,41.3,40.5,30.03,West,260,1.7,1.7,97,0.00,,---,0.25,VWS V14.01,2013-04-16 12:32:00,
2013-04-16 08:37:00,41.3,40.5,30.03,NW,305,0.0,3.0,97,0.00,,---,0.25,VWS V14.01,2013-04-16 12:37:00,
2013-04-16 08:42:00,41.3,40.5,30.03,West,260,2.0,4.3,97,0.00,,---,0.25,VWS V14.01,2013-04-16 12:42:00,
2013-04-16 08:47:00,41.5,40.7,30.03,West,260,4.3,4.3,97,0.00,,---,0.25,VWS V14.01,2013-04-16 12:47:00,
2013-04-16 08:52:00,41.5,40.7,30.03,NW,305,0.0,0.0,97,0.00,,---,0.25,VWS V14.01,2013-04-16 12:52:00,
2013-04-16 08:57:00,41.7,40.9,30.03,NW,305,2.3,2.3,97,0.00,,---,0.25,VWS V14.01,2013-04-16 12:57:00,
2013-04-16 09:02:00,41.8,41.0,30.03,WNW,282,1.7,2.3,97,0.00,,---,0.25,VWS V14.01,2013-04-16 13:02:00,
2013-04-16 09:08:00,41.8,41.0,30.03,North,350,0.0,0.0,97,0.00,,---,0.25,VWS V14.01,2013-04-16 13:08:00,
2013-04-16 09:13:00,41.7,40.6,30.03,NW,305,0.0,0.0,96,0.00,,---,0.25,VWS V14.01,2013-04-16 13:13:00,
2013-04-16 09:18:00,41.7,40.6,30.03,NW,305,2.3,2.3,96,0.00,,---,0.25,VWS V14.01,2013-04-16 13:18:00,
2013-04-16 09:23:00,41.8,40.8,30.03,NW,305,0.0,6.0,96,0.00,,---,0.25,VWS V14.01,2013-04-16 13:23:00,
2013-04-16 09:28:00,41.8,40.8,30.03,WNW,282,6.0,6.0,96,0.00,,---,0.25,VWS V14.01,2013-04-16 13:28:00,
2013-04-16 09:33:00,42.0,41.0,30.03,NW,305,0.0,2.0,96,0.00,,---,0.25,VWS V14.01,2013-04-16 13:33:00,
2013-04-16 09:38:00,42.2,40.9,30.03,NW,305,4.3,4.3,95,0.00,,---,0.25,VWS V14.01,2013-04-16 13:38:00,
2013-04-16 09:43:00,42.2,40.9,30.03,North,350,1.7,2.0,95,0.00,,---,0.25,VWS V14.01,2013-04-16 13:43:00,
2013-04-16 09:49:00,42.2,40.9,30.06,WNW,282,4.3,4.3,95,0.00,,---,0.25,VWS V14.01,2013-04-16 13:49:00,
2013-04-16 09:54:00,42.4,41.0,30.06,NE,35,2.0,2.0,95,0.00,,---,0.25,VWS V14.01,2013-04-16 13:54:00,
2013-04-16 09:59:00,42.7,41.4,30.06,North,350,3.0,5.6,95,0.00,,---,0.25,VWS V14.01,2013-04-16 13:59:00,
2013-04-16 10:04:00,42.9,41.3,30.06,NW,305,5.3,5.3,94,0.00,,---,0.25,VWS V14.01,2013-04-16 14:04:00,
2013-04-16 10:09:00,43.5,41.8,30.06,SW,215,0.0,5.6,94,0.00,,---,0.25,VWS V14.01,2013-04-16 14:09:00,
2013-04-16 10:14:00,43.6,42.0,30.06,NW,305,0.0,3.3,94,0.00,,---,0.25,VWS V14.01,2013-04-16 14:14:00,
2013-04-16 10:19:00,43.5,41.8,30.06,SE,125,1.3,1.3,94,0.00,,---,0.25,VWS V14.01,2013-04-16 14:19:00,
2013-04-16 10:25:00,43.6,41.8,30.06,WNW,282,7.9,7.9,93,0.00,,---,0.25,VWS V14.01,2013-04-16 14:25:00,
2013-04-16 10:30:00,43.8,41.9,30.06,NW,305,4.0,4.0,93,0.00,,---,0.25,VWS V14.01,2013-04-16 14:30:00,
2013-04-16 10:35:00,44.2,42.0,30.06,SW,215,1.7,8.9,92,0.00,,---,0.25,VWS V14.01,2013-04-16 14:35:00,
2013-04-16 10:40:00,44.5,42.1,30.06,NW,305,1.7,5.6,91,0.00,,---,0.25,VWS V14.01,2013-04-16 14:40:00,
2013-04-16 10:45:00,45.1,42.6,30.06,WNW,282,5.0,8.6,91,0.00,,---,0.25,VWS V14.01,2013-04-16 14:45:00,
2013-04-16 10:50:00,45.1,42.3,30.09,WNW,282,0.0,0.0,90,0.00,,---,0.25,VWS V14.01,2013-04-16 14:50:00,
2013-04-16 10:55:00,45.4,43.0,30.09,West,260,8.3,9.3,91,0.00,,---,0.25,VWS V14.01,2013-04-16 14:55:00,
2013-04-16 11:00:00,45.6,43.2,30.09,NW,305,5.0,9.3,91,0.00,,---,0.34,VWS V14.01,2013-04-16 15:00:00,
2013-04-16 11:05:00,45.3,42.5,30.09,WNW,282,11.6,11.6,90,0.00,,---,0.25,VWS V14.01,2013-04-16 15:05:00,
2013-04-16 11:10:00,45.8,42.2,30.09,North,350,8.6,8.6,87,0.00,,---,0.25,VWS V14.01,2013-04-16 15:10:00,
2013-04-16 11:15:00,46.2,42.5,30.09,West,260,6.3,8.9,87,0.00,,---,0.25,VWS V14.01,2013-04-16 15:15:00,
2013-04-16 11:20:00,46.9,43.2,30.09,West,260,7.9,7.9,87,0.00,,---,0.25,VWS V14.01,2013-04-16 15:20:00,
2013-04-16 11:25:00,46.9,42.6,30.09,NW,305,7.0,7.0,85,0.00,,---,0.25,VWS V14.01,2013-04-16 15:25:00,
2013-04-16 11:31:00,47.2,43.3,30.09,North,350,1.7,3.6,86,0.00,,---,0.25,VWS V14.01,2013-04-16 15:31:00,
2013-04-16 11:36:00,47.4,43.1,30.09,WNW,282,5.3,5.3,85,0.00,,---,0.25,VWS V14.01,2013-04-16 15:36:00,
2013-04-16 11:41:00,48.0,43.4,30.09,NW,305,0.0,5.3,84,0.00,,---,0.25,VWS V14.01,2013-04-16 15:41:00,
2013-04-16 11:46:00,48.3,44.0,30.09,North,350,5.3,8.3,85,0.00,,---,0.25,VWS V14.01,2013-04-16 15:46:00,
2013-04-16 11:51:00,48.7,44.1,30.09,NW,305,10.3,10.3,84,0.00,,---,0.25,VWS V14.01,2013-04-16 15:51:00,
2013-04-16 11:56:00,49.2,44.0,30.09,West,260,8.3,8.6,82,0.00,,---,0.25,VWS V14.01,2013-04-16 15:56:00,
2013-04-16 12:01:00,49.4,44.5,30.09,NW,305,5.3,11.9,83,0.00,,---,0.34,VWS V14.01,2013-04-16 16:01:00,
2013-04-16 12:06:00,49.2,43.0,30.09,North,350,8.3,8.3,79,0.00,,---,0.25,VWS V14.01,2013-04-16 16:06:00,
2013-04-16 12:11:00,49.0,42.2,30.09,West,260,10.9,10.9,77,0.00,,---,0.25,VWS V14.01,2013-04-16 16:11:00,
2013-04-16 12:16:00,49.6,43.0,30.09,West,260,8.9,8.9,78,0.00,,---,0.25,VWS V14.01,2013-04-16 16:16:00,
2013-04-16 12:21:00,49.6,42.3,30.09,North,350,3.6,8.3,76,0.00,,---,0.25,VWS V14.01,2013-04-16 16:21:00,
2013-04-16 12:26:00,50.1,43.2,30.09,South,170,3.6,7.9,77,0.00,,---,0.25,VWS V14.01,2013-04-16 16:26:00,
2013-04-16 12:31:00,50.5,43.5,30.09,NW,305,4.3,6.0,77,0.00,,---,0.25,VWS V14.01,2013-04-16 16:31:00,
2013-04-16 12:37:00,50.1,41.8,30.09,North,350,5.6,5.6,73,0.00,,---,0.25,VWS V14.01,2013-04-16 16:37:00,
2013-04-16 12:42:00,51.0,43.7,30.09,NW,305,7.9,9.6,76,0.00,,---,0.25,VWS V14.01,2013-04-16 16:42:00,
2013-04-16 12:47:00,51.4,43.7,30.09,West,260,3.6,6.3,75,0.00,,---,0.25,VWS V14.01,2013-04-16 16:47:00,
2013-04-16 12:52:00,51.9,43.5,30.09,WNW,282,5.0,5.6,73,0.00,,---,0.25,VWS V14.01,2013-04-16 16:52:00,
2013-04-16 12:57:00,52.6,42.8,30.09,West,260,4.6,4.6,69,0.00,,---,0.25,VWS V14.01,2013-04-16 16:57:00,
2013-04-16 13:02:00,52.5,44.1,30.09,West,260,6.0,8.9,73,0.00,,---,0.25,VWS V14.01,2013-04-16 17:02:00,
2013-04-16 13:07:00,53.0,42.3,30.09,NW,305,6.3,6.3,67,0.00,,---,0.25,VWS V14.01,2013-04-16 17:07:00,
2013-04-16 13:12:00,52.6,41.2,30.09,West,260,5.3,8.6,65,0.00,,---,0.25,VWS V14.01,2013-04-16 17:12:00,
2013-04-16 13:17:00,53.7,41.0,30.09,West,260,9.6,10.9,62,0.00,,---,0.25,VWS V14.01,2013-04-16 17:17:00,
2013-04-16 13:23:00,54.6,40.2,30.09,West,260,14.6,14.6,58,0.00,,---,0.34,VWS V14.01,2013-04-16 17:23:00,
2013-04-16 13:28:00,55.2,42.0,30.09,West,260,7.3,7.3,61,0.00,,---,0.25,VWS V14.01,2013-04-16 17:28:00,
2013-04-16 13:33:00,54.6,41.5,30.09,NNE,12,7.3,7.3,61,0.00,,---,0.25,VWS V14.01,2013-04-16 17:33:00,
2013-04-16 13:38:00,53.9,39.9,30.09,WNW,282,10.9,10.9,59,0.00,,---,0.25,VWS V14.01,2013-04-16 17:38:00,
2013-04-16 13:43:00,54.3,40.7,30.09,NW,305,4.6,11.3,60,0.00,,---,0.25,VWS V14.01,2013-04-16 17:43:00,
2013-04-16 13:48:00,54.4,40.0,30.12,NW,305,7.0,7.0,58,0.00,,---,0.25,VWS V14.01,2013-04-16 17:48:00,
2013-04-16 13:53:00,54.6,40.6,30.12,West,260,9.9,9.9,59,0.00,,---,0.25,VWS V14.01,2013-04-16 17:53:00,
2013-04-16 13:59:00,55.2,39.8,30.12,SW,215,9.6,9.6,56,0.00,,---,0.25,VWS V14.01,2013-04-16 17:59:00,
2013-04-16 14:04:00,55.2,37.9,30.12,West,260,4.0,9.6,52,0.00,,---,0.25,VWS V14.01,2013-04-16 18:04:00,
2013-04-16 14:09:00,55.2,37.9,30.12,NW,305,7.0,9.6,52,0.00,,---,0.25,VWS V14.01,2013-04-16 18:09:00,
2013-04-16 14:14:00,54.6,37.4,30.12,NW,305,13.9,13.9,52,0.00,,---,0.25,VWS V14.01,2013-04-16 18:14:00,
2013-04-16 14:19:00,55.0,37.7,30.12,East,80,1.3,11.9,52,0.00,,---,0.25,VWS V14.01,2013-04-16 18:19:00,
2013-04-16 14:24:00,54.1,37.3,30.12,West,260,7.9,7.9,53,0.00,,---,0.25,VWS V14.01,2013-04-16 18:24:00,
2013-04-16 14:29:00,53.7,36.5,30.12,West,260,8.3,8.6,52,0.00,,---,0.25,VWS V14.01,2013-04-16 18:29:00,
2013-04-16 14:34:00,53.4,36.2,30.12,NW,305,3.0,6.0,52,0.00,,---,0.25,VWS V14.01,2013-04-16 18:34:00,
2013-04-16 14:40:00,53.0,36.3,30.12,West,260,5.3,14.9,53,0.00,,---,0.25,VWS V14.01,2013-04-16 18:40:00,
2013-04-16 14:45:00,52.6,36.0,30.12,NW,305,6.3,8.9,53,0.00,,---,0.25,VWS V14.01,2013-04-16 18:45:00,
2013-04-16 14:50:00,52.8,36.7,30.12,West,260,9.3,9.3,54,0.00,,---,0.25,VWS V14.01,2013-04-16 18:50:00,
2013-04-16 14:55:00,53.2,36.0,30.12,NW,305,4.3,5.6,52,0.00,,---,0.25,VWS V14.01,2013-04-16 18:55:00,
2013-04-16 15:00:00,52.8,35.7,30.12,NW,305,12.6,12.6,52,0.00,,---,0.34,VWS V14.01,2013-04-16 19:00:00,
2013-04-16 15:05:00,52.3,35.2,30.12,NW,305,5.6,9.6,52,0.00,,---,0.25,VWS V14.01,2013-04-16 19:05:00,
2013-04-16 15:10:00,52.1,34.5,30.12,NW,305,3.3,3.6,51,0.00,,---,0.25,VWS V14.01,2013-04-16 19:10:00,
2013-04-16 15:15:00,52.3,34.7,30.12,North,350,6.3,6.3,51,0.00,,---,0.25,VWS V14.01,2013-04-16 19:15:00,
2013-04-16 15:20:00,52.1,34.5,30.12,West,260,9.3,9.3,51,0.00,,---,0.25,VWS V14.01,2013-04-16 19:20:00,
2013-04-16 15:25:00,51.9,33.4,30.12,NW,305,5.6,5.6,49,0.00,,---,0.25,VWS V14.01,2013-04-16 19:25:00,
2013-04-16 15:31:00,51.9,33.4,30.12,WNW,282,5.3,9.3,49,0.00,,---,0.25,VWS V14.01,2013-04-16 19:31:00,
2013-04-16 15:36:00,52.3,33.7,30.12,West,260,6.0,6.0,49,0.00,,---,0.25,VWS V14.01,2013-04-16 19:36:00,
2013-04-16 15:41:00,53.0,33.8,30.12,West,260,8.3,8.3,48,0.00,,---,0.25,VWS V14.01,2013-04-16 19:41:00,
2013-04-16 15:46:00,52.6,33.5,30.12,South,170,6.3,6.3,48,0.00,,---,0.25,VWS V14.01,2013-04-16 19:46:00,
2013-04-16 15:51:00,52.8,33.7,30.12,North,350,5.0,6.3,48,0.00,,---,0.25,VWS V14.01,2013-04-16 19:51:00,
2013-04-16 15:56:00,52.3,32.7,30.12,NW,305,8.9,8.9,47,0.00,,---,0.25,VWS V14.01,2013-04-16 19:56:00,
2013-04-16 16:01:00,52.3,32.7,30.12,North,350,5.3,8.3,47,0.00,,---,0.25,VWS V14.01,2013-04-16 20:01:00,
2013-04-16 16:06:00,52.3,33.2,30.12,NW,305,8.6,8.6,48,0.00,,---,0.25,VWS V14.01,2013-04-16 20:06:00,
2013-04-16 16:11:00,52.8,33.2,30.12,WNW,282,4.6,12.6,47,0.00,,---,0.25,VWS V14.01,2013-04-16 20:11:00,
2013-04-16 16:16:00,52.6,33.0,30.12,SW,215,8.3,8.3,47,0.00,,---,0.25,VWS V14.01,2013-04-16 20:16:00,
2013-04-16 16:21:00,53.0,33.3,30.12,West,260,8.6,8.6,47,0.00,,---,0.25,VWS V14.01,2013-04-16 20:21:00,
2013-04-16 16:27:00,52.3,32.7,30.12,North,350,5.6,5.6,47,0.00,,---,0.25,VWS V14.01,2013-04-16 20:27:00,
2013-04-16 16:32:00,52.6,33.0,30.12,NW,305,5.6,5.6,47,0.00,,---,0.25,VWS V14.01,2013-04-16 20:32:00,
2013-04-16 16:37:00,52.1,32.5,30.12,North,350,2.3,11.3,47,0.00,,---,0.25,VWS V14.01,2013-04-16 20:37:00,
2013-04-16 16:42:00,52.1,32.5,30.12,NW,305,5.3,5.3,47,0.00,,---,0.25,VWS V14.01,2013-04-16 20:42:00,
2013-04-16 16:47:00,52.5,32.3,30.12,NW,305,6.0,6.0,46,0.00,,---,0.25,VWS V14.01,2013-04-16 20:47:00,
2013-04-16 16:52:00,52.1,32.0,30.12,NE,35,4.6,5.3,46,0.00,,---,0.25,VWS V14.01,2013-04-16 20:52:00,
2013-04-16 16:57:00,51.9,31.8,30.12,NW,305,0.0,4.0,46,0.00,,---,0.25,VWS V14.01,2013-04-16 20:57:00,
2013-04-16 17:03:00,52.3,32.1,30.12,NW,305,5.3,5.3,46,0.00,,---,0.25,VWS V14.01,2013-04-16 21:03:00,
2013-04-16 17:08:00,52.6,33.0,30.12,NW,305,8.6,8.6,47,0.00,,---,0.25,VWS V14.01,2013-04-16 21:08:00,
2013-04-16 17:13:00,52.3,32.1,30.12,NW,305,7.3,7.3,46,0.00,,---,0.25,VWS V14.01,2013-04-16 21:13:00,
2013-04-16 17:18:00,51.9,31.8,30.12,NE,35,5.6,5.6,46,0.00,,---,0.25,VWS V14.01,2013-04-16 21:18:00,
2013-04-16 17:23:00,51.9,31.8,30.12,NW,305,3.0,5.6,46,0.00,,---,0.25,VWS V14.01,2013-04-16 21:23:00,
2013-04-16 17:28:00,51.4,31.3,30.12,NW,305,3.0,5.0,46,0.00,,---,0.25,VWS V14.01,2013-04-16 21:28:00,
2013-04-16 17:33:00,51.6,31.5,30.15,NW,305,4.0,4.0,46,0.00,,---,0.25,VWS V14.01,2013-04-16 21:33:00,
2013-04-16 17:38:00,51.4,31.3,30.15,NW,305,6.3,6.3,46,0.00,,---,0.25,VWS V14.01,2013-04-16 21:38:00,
2013-04-16 17:44:00,51.0,31.0,30.15,NW,305,6.3,6.3,46,0.00,,---,0.25,VWS V14.01,2013-04-16 21:44:00,
2013-04-16 17:49:00,51.2,30.6,30.15,NW,305,6.3,6.3,45,0.00,,---,0.25,VWS V14.01,2013-04-16 21:49:00,
2013-04-16 17:54:00,50.8,30.8,30.15,NNW,328,3.3,3.3,46,0.00,,---,0.25,VWS V14.01,2013-04-16 21:54:00,
2013-04-16 17:59:00,50.8,30.8,30.15,North,350,5.0,5.0,46,0.00,,---,0.25,VWS V14.01,2013-04-16 21:59:00,
2013-04-16 18:04:00,50.5,30.0,30.15,North,350,5.0,5.0,45,0.00,,---,0.25,VWS V14.01,2013-04-16 22:04:00,
2013-04-16 18:09:00,50.5,30.5,30.15,North,350,5.0,5.0,46,0.00,,---,0.25,VWS V14.01,2013-04-16 22:09:00,
2013-04-16 18:14:00,50.1,30.2,30.15,North,350,5.0,5.0,46,0.00,,---,0.25,VWS V14.01,2013-04-16 22:14:00,
2013-04-16 18:19:00,49.8,29.8,30.15,North,350,5.0,5.0,46,0.00,,---,0.25,VWS V14.01,2013-04-16 22:19:00,
2013-04-16 18:24:00,49.6,29.7,30.15,North,350,5.0,5.0,46,0.00,,---,0.25,VWS V14.01,2013-04-16 22:24:00,
2013-04-16 18:29:00,49.6,29.7,30.15,North,350,5.0,5.0,46,0.00,,---,0.25,VWS V14.01,2013-04-16 22:29:00,
2013-04-16 18:34:00,49.6,29.7,30.18,North,350,5.0,5.0,46,0.00,,---,0.25,VWS V14.01,2013-04-16 22:34:00,
2013-04-16 18:39:00,49.8,30.4,30.18,North,350,5.0,5.0,47,0.00,,---,0.25,VWS V14.01,2013-04-16 22:39:00,
2013-04-16 18:44:00,49.8,30.4,30.18,North,350,5.0,5.0,47,0.00,,---,0.25,VWS V14.01,2013-04-16 22:44:00,
2013-04-16 18:49:00,49.4,30.0,30.15,North,350,5.0,5.0,47,0.00,,---,0.25,VWS V14.01,2013-04-16 22:49:00,
2013-04-16 18:55:00,49.6,30.2,30.15,North,350,5.0,5.0,47,0.00,,---,0.25,VWS V14.01,2013-04-16 22:55:00,
2013-04-16 19:00:00,49.6,30.2,30.15,North,350,4.6,5.0,47,0.00,,---,0.34,VWS V14.01,2013-04-16 23:00:00,
2013-04-16 19:05:00,48.9,29.5,30.18,North,350,4.6,4.6,47,0.00,,---,0.25,VWS V14.01,2013-04-16 23:05:00,
2013-04-16 19:10:00,48.5,29.2,30.18,North,350,4.6,4.6,47,0.00,,---,0.25,VWS V14.01,2013-04-16 23:10:00,
2013-04-16 19:15:00,48.3,29.0,30.18,North,350,4.6,4.6,47,0.00,,---,0.25,VWS V14.01,2013-04-16 23:15:00,
2013-04-16 19:20:00,48.1,28.9,30.15,North,350,4.6,4.6,47,0.00,,---,0.25,VWS V14.01,2013-04-16 23:20:00,
2013-04-16 19:25:00,47.8,28.5,30.15,North,350,4.6,4.6,47,0.00,,---,0.25,VWS V14.01,2013-04-16 23:25:00,
2013-04-16 19:30:00,47.4,28.2,30.15,North,350,4.6,4.6,47,0.00,,---,0.25,VWS V14.01,2013-04-16 23:30:00,
2013-04-16 19:35:00,47.4,28.7,30.18,SW,215,0.0,4.6,48,0.00,,---,0.25,VWS V14.01,2013-04-16 23:35:00,
2013-04-16 19:41:00,47.4,28.7,30.18,SW,215,0.0,0.0,48,0.00,,---,0.25,VWS V14.01,2013-04-16 23:41:00,
2013-04-16 19:46:00,47.1,28.4,30.18,SW,215,0.0,0.0,48,0.00,,---,0.25,VWS V14.01,2013-04-16 23:46:00,
2013-04-16 19:51:00,46.7,28.1,30.18,SW,215,0.0,0.0,48,0.00,,---,0.25,VWS V14.01,2013-04-16 23:51:00,
2013-04-16 19:56:00,46.7,28.1,30.18,NE,35,3.3,3.3,48,0.00,,---,0.25,VWS V14.01,2013-04-16 23:56:00,
2013-04-16 20:01:00,46.7,28.1,30.18,North,350,5.6,5.6,48,0.00,,---,0.25,VWS V14.01,2013-04-17 00:01:00,
2013-04-16 20:06:00,46.5,28.4,30.18,North,350,5.6,5.6,49,0.00,,---,0.25,VWS V14.01,2013-04-17 00:06:00,
2013-04-16 20:11:00,46.5,28.4,30.18,North,350,5.6,5.6,49,0.00,,---,0.25,VWS V14.01,2013-04-17 00:11:00,
2013-04-16 20:16:00,46.3,28.2,30.18,North,350,5.6,5.6,49,0.00,,---,0.25,VWS V14.01,2013-04-17 00:16:00,
2013-04-16 20:21:00,46.2,28.1,30.18,North,350,5.6,5.6,49,0.00,,---,0.25,VWS V14.01,2013-04-17 00:21:00,
2013-04-16 20:26:00,46.0,27.9,30.18,North,350,5.6,5.6,49,0.00,,---,0.25,VWS V14.01,2013-04-17 00:26:00,
2013-04-16 20:31:00,46.0,27.9,30.18,North,350,5.6,5.6,49,0.00,,---,0.25,VWS V14.01,2013-04-17 00:31:00,
2013-04-16 20:36:00,45.8,27.7,30.18,North,350,5.6,5.6,49,0.00,,---,0.25,VWS V14.01,2013-04-17 00:36:00,
2013-04-16 20:41:00,45.8,28.2,30.18,North,350,5.6,5.6,50,0.00,,---,0.25,VWS V14.01,2013-04-17 00:41:00,
2013-04-16 20:47:00,45.6,28.1,30.18,North,350,5.6,5.6,50,0.00,,---,0.25,VWS V14.01,2013-04-17 00:47:00,
2013-04-16 20:52:00,45.6,28.1,30.18,North,350,5.6,5.6,50,0.00,,---,0.25,VWS V14.01,2013-04-17 00:52:00,
2013-04-16 20:57:00,45.6,28.1,30.18,North,350,5.6,5.6,50,0.00,,---,0.25,VWS V14.01,2013-04-17 00:57:00,
2013-04-16 21:02:00,45.4,28.4,30.18,North,350,5.6,5.6,51,0.00,,---,0.25,VWS V14.01,2013-04-17 01:02:00,
2013-04-16 21:07:00,45.4,28.4,30.18,North,350,5.6,5.6,51,0.00,,---,0.25,VWS V14.01,2013-04-17 01:07:00,
2013-04-16 21:12:00,45.3,28.2,30.18,North,350,5.6,5.6,51,0.00,,---,0.25,VWS V14.01,2013-04-17 01:12:00,
2013-04-16 21:17:00,45.1,28.0,30.18,North,350,5.6,5.6,51,0.00,,---,0.25,VWS V14.01,2013-04-17 01:17:00,
2013-04-16 21:22:00,44.9,27.9,30.18,North,350,5.6,5.6,51,0.00,,---,0.25,VWS V14.01,2013-04-17 01:22:00,
2013-04-16 21:28:00,44.7,27.7,30.18,North,350,5.6,5.6,51,0.00,,---,0.25,VWS V14.01,2013-04-17 01:28:00,
2013-04-16 21:33:00,44.7,27.7,30.18,North,350,5.6,5.6,51,0.00,,---,0.25,VWS V14.01,2013-04-17 01:33:00,
2013-04-16 21:38:00,44.5,28.0,30.18,NW,305,0.0,0.0,52,0.00,,---,0.25,VWS V14.01,2013-04-17 01:38:00,
2013-04-16 21:43:00,44.5,28.0,30.18,NW,305,0.0,0.0,52,0.00,,---,0.25,VWS V14.01,2013-04-17 01:43:00,
2013-04-16 21:48:00,44.4,27.9,30.21,NW,305,0.0,0.0,52,0.00,,---,0.25,VWS V14.01,2013-04-17 01:48:00,
2013-04-16 21:53:00,44.2,27.7,30.21,NW,305,0.0,0.0,52,0.00,,---,0.25,VWS V14.01,2013-04-17 01:53:00,
2013-04-16 21:58:00,44.0,28.0,30.21,NW,305,0.0,0.0,53,0.00,,---,0.25,VWS V14.01,2013-04-17 01:58:00,
2013-04-16 22:03:00,43.8,27.8,30.21,NNE,12,3.0,3.0,53,0.00,,---,0.25,VWS V14.01,2013-04-17 02:03:00,
2013-04-16 22:08:00,43.8,28.3,30.21,WNW,282,4.0,4.0,54,0.00,,---,0.25,VWS V14.01,2013-04-17 02:08:00,
2013-04-16 22:13:00,43.6,28.1,30.21,WNW,282,4.0,4.0,54,0.00,,---,0.25,VWS V14.01,2013-04-17 02:13:00,
2013-04-16 22:18:00,43.5,27.9,30.21,WNW,282,4.0,4.0,54,0.00,,---,0.25,VWS V14.01,2013-04-17 02:18:00,
2013-04-16 22:23:00,43.5,28.4,30.21,WNW,282,4.0,4.0,55,0.00,,---,0.25,VWS V14.01,2013-04-17 02:23:00,
2013-04-16 22:29:00,43.1,28.0,30.21,WNW,282,0.0,0.0,55,0.00,,---,0.25,VWS V14.01,2013-04-17 02:29:00,
2013-04-16 22:34:00,43.1,28.0,30.21,WNW,282,0.0,0.0,55,0.00,,---,0.25,VWS V14.01,2013-04-17 02:34:00,
2013-04-16 22:39:00,43.1,28.0,30.21,WNW,282,0.0,0.0,55,0.00,,---,0.25,VWS V14.01,2013-04-17 02:39:00,
2013-04-16 22:44:00,43.1,28.5,30.21,WNW,282,0.0,0.0,56,0.00,,---,0.25,VWS V14.01,2013-04-17 02:44:00,
2013-04-16 22:49:00,43.1,28.5,30.21,WNW,282,0.0,0.0,56,0.00,,---,0.25,VWS V14.01,2013-04-17 02:49:00,
2013-04-16 22:54:00,42.9,28.3,30.21,WNW,282,0.0,0.0,56,0.00,,---,0.25,VWS V14.01,2013-04-17 02:54:00,
2013-04-16 22:59:00,42.9,28.3,30.21,NW,305,0.0,0.0,56,0.00,,---,0.25,VWS V14.01,2013-04-17 02:59:00,
2013-04-16 23:04:00,42.7,28.6,30.21,NW,305,0.0,0.0,57,0.00,,---,0.25,VWS V14.01,2013-04-17 03:04:00,
2013-04-16 23:09:00,42.7,28.6,30.21,NW,305,0.0,0.0,57,0.00,,---,0.25,VWS V14.01,2013-04-17 03:09:00,
2013-04-16 23:14:00,42.6,28.4,30.21,NW,305,0.0,0.0,57,0.00,,---,0.25,VWS V14.01,2013-04-17 03:14:00,
2013-04-16 23:19:00,42.6,28.4,30.21,NW,305,0.0,0.0,57,0.00,,---,0.25,VWS V14.01,2013-04-17 03:19:00,
2013-04-16 23:24:00,42.4,28.2,30.21,NW,305,0.0,0.0,57,0.00,,---,0.25,VWS V14.01,2013-04-17 03:24:00,
2013-04-16 23:29:00,42.4,28.7,30.21,NW,305,0.0,0.0,58,0.00,,---,0.25,VWS V14.01,2013-04-17 03:29:00,
2013-04-16 23:35:00,42.4,28.7,30.21,NW,305,0.0,0.0,58,0.00,,---,0.25,VWS V14.01,2013-04-17 03:35:00,
2013-04-16 23:40:00,42.4,28.7,30.21,NW,305,0.0,0.0,58,0.00,,---,0.25,VWS V14.01,2013-04-17 03:40:00,
2013-04-16 23:45:00,42.2,28.5,30.21,NW,305,0.0,0.0,58,0.00,,---,0.25,VWS V14.01,2013-04-17 03:45:00,
2013-04-16 23:50:00,42.2,28.9,30.21,NW,305,0.0,0.0,59,0.00,,---,0.25,VWS V14.01,2013-04-17 03:50:00,
2013-04-16 23:55:00,42.4,29.1,30.21,NW,305,0.0,0.0,59,0.00,,---,0.25,VWS V14.01,2013-04-17 03:55:00,